User: anonymous   Login
Location: Unspecified
(0.0000°N, 0.0000°E)
Time: 11:17:22
(UTC+00:00)
Language:

Intelsat V F6 - Orbit

View from above orbital plane
View from above orbital plane
View from above satellite
View from above satellite

Ground track
Ground track

The orbit data is extracted from the following two-line orbital elements,

1 14077U 83047A   18019.39629228 -.00000172 +00000-0 +00000-0 0  9992
2 14077 015.2601 359.1515 0042679 265.5676 290.3597 00.99160819093639
Epoch (UTC): 19 January 2018 09:30:39
Eccentricity: 0.0042679
inclination: 15.2601°
perigee height: 35919 km
apogee height: 36282 km
right ascension of ascending node: 359.1515°
argument of perigee: 265.5676°
revolutions per day: 0.99160819
mean anomaly at epoch: 290.3597°
orbit number at epoch: 9363

The dashed part of the orbit path shows where the satellite is in the earth's shadow,  

DLR